FW1340 Weather Reports


time (UTC)temp
F
wind
direction
speed
knots
gust
knots
rain 1hr
in
rain 24hr
in
rain mn
in
humidity
%
barometer
mb
20260831141501 52 74 0.0 0.0 0.00 0.00 0.00 88 1012.0
20260831140056 51 74 0.0 0.0 0.00 0.00 0.00 85 1011.8
20260831134558 53 305 0.0 0.0 0.00 0.00 0.00 83 1011.6
20260831133049 53 305 0.0 0.0 0.00 0.00 0.00 83 1011.4
20260831131547 54 305 0.0 0.0 0.00 0.00 0.00 84 1011.3
20260831130049 54 296 0.0 0.0 0.00 0.00 0.00 85 1011.4
20260831124542 55 315 0.0 0.0 0.00 0.00 0.00 85 1011.1
20260831123039 55 291 0.0 0.0 0.00 0.00 0.00 85 1011.0
20260831121538 55 284 0.0 0.0 0.00 0.00 0.00 84 1010.9
20260831120037 55 273 0.0 0.0 0.00 0.00 0.00 84 1010.9
20260831114535 55 294 0.0 0.0 0.00 0.00 0.00 83 1010.8
20260831113032 56 13 0.0 0.0 0.00 0.00 0.00 80 1010.7
20260831111539 57 13 0.0 0.0 0.00 0.00 0.00 79 1010.7
20260831110027 57 13 0.0 0.0 0.00 0.00 0.00 80 1010.7
20260831104530 57 13 0.0 0.0 0.00 0.00 0.00 81 1010.8
20260831103024 57 13 0.0 0.0 0.00 0.00 0.00 82 1010.6
20260831101524 57 13 0.0 0.0 0.00 0.00 0.00 82 1010.6
20260831100021 57 19 0.0 0.0 0.00 0.00 0.00 82 1010.6
20260831094525 58 17 0.0 0.0 0.00 0.00 0.00 80 1010.4
20260831093017 58 12 0.0 0.0 0.00 0.00 0.00 80 1010.4
20260831091517 59 9 0.0 0.0 0.00 0.00 0.00 80 1010.6
20260831090016 59 116 0.0 0.0 0.00 0.00 0.00 79 1010.4
20260831084525 59 116 0.0 0.0 0.00 0.00 0.00 79 1010.5
20260831083009 60 143 0.0 0.0 0.00 0.00 0.00 76 1010.5
20260831081516 60 143 0.0 0.0 0.00 0.00 0.00 77 1010.7
20260831080005 61 143 0.0 0.0 0.00 0.00 0.00 76 1010.7
20260831074517 61 142 0.0 0.0 0.00 0.00 0.00 76 1010.8
20260831073001 61 142 0.0 0.0 0.00 0.00 0.00 77 1010.7
20260831071601 61 190 0.0 0.0 0.00 0.00 0.00 75 1010.7
20260831070058 61 93 0.0 0.0 0.00 0.00 0.00 74 1010.7
20260831064607 63 96 0.0 0.0 0.00 0.00 0.00 71 1010.7
20260831063057 64 272 0.0 0.0 0.00 0.00 0.00 71 1010.6
20260831061556 65 261 0.0 0.0 0.00 0.00 0.00 71 1010.6
20260831060104 65 268 0.0 0.0 0.00 0.00 0.00 70 1010.5
20260831054554 66 270 0.0 0.0 0.00 0.00 0.00 69 1010.6
20260831053054 66 260 0.0 0.0 0.00 0.00 0.00 68 1010.6
20260831051554 67 257 0.0 0.0 0.00 0.00 0.00 67 1010.6
20260831050126 68 265 0.0 0.0 0.00 0.00 0.00 66 1010.6
20260831044553 69 264 0.0 0.0 0.00 0.00 0.00 63 1010.6
20260831043051 70 257 0.0 0.0 0.00 0.00 0.00 61 1010.5
20260831041552 71 264 0.0 0.0 0.00 0.00 0.00 59 1010.5
20260831040054 72 269 0.0 0.0 0.00 0.00 0.00 57 1010.3
20260831034551 73 263 0.0 0.0 0.00 0.00 0.00 54 1010.3
20260831033050 75 258 0.0 0.0 0.00 0.00 0.00 51 1010.1
20260831031553 76 271 0.0 0.0 0.00 0.00 0.00 47 1010.0
20260831030054 78 250 0.0 0.0 0.00 0.00 0.00 45 1009.8
20260831024548 79 267 0.0 0.0 0.00 0.00 0.00 44 1009.7
20260831023047 81 263 0.0 0.0 0.00 0.00 0.00 42 1009.7
20260831021547 83 253 0.0 0.0 0.00 0.00 0.00 41 1009.6
20260831020046 85 281 0.0 0.0 0.00 0.00 0.00 38 1009.5
20260831014550 86 294 0.0 0.0 0.00 0.00 0.00 37 1009.5
20260831013045 87 276 0.0 0.0 0.00 0.00 0.00 35 1009.4
20260831011544 88 265 0.0 0.0 0.00 0.00 0.00 34 1009.5
20260831010043 88 281 0.0 0.0 0.00 0.00 0.00 33 1009.6
20260831004546 88 273 0.0 0.0 0.00 0.00 0.00 33 1009.6
20260831003041 88 268 0.0 0.0 0.00 0.00 0.00 32 1009.6
20260831001541 89 266 0.0 0.0 0.00 0.00 0.00 32 1009.7
20260831000053 89 256 0.0 0.0 0.00 0.00 0.00 33 1009.8
20260830234546 89 265 0.0 0.0 0.00 0.00 0.00 34 1009.9
20260830233053 89 257 0.0 0.0 0.00 0.00 0.00 36 1010.1
20260830231535 89 301 0.0 0.0 0.00 0.00 0.00 36 1010.1
20260830230032 88 252 0.0 0.0 0.00 0.00 0.00 34 1010.3
20260830224529 88 264 0.0 0.0 0.00 0.00 0.00 34 1010.5
20260830223028 88 264 0.0 0.0 0.00 0.00 0.00 36 1010.7
20260830221526 88 217 0.0 0.0 0.00 0.00 0.00 37 1010.8
20260830220030 87 302 0.0 0.0 0.00 0.00 0.00 39 1011.1
20260830214519 87 267 0.0 0.0 0.00 0.00 0.00 39 1011.4
20260830213021 86 293 0.0 0.0 0.00 0.00 0.00 41 1011.5
20260830211513 85 248 0.0 0.0 0.00 0.00 0.00 42 1011.8
20260830210019 84 265 0.0 0.0 0.00 0.00 0.00 43 1011.9
20260830204506 84 275 0.0 0.0 0.00 0.00 0.00 45 1012.0
20260830203002 82 237 0.0 0.0 0.00 0.00 0.00 46 1012.1
20260830201618 81 262 0.0 0.0 0.00 0.00 0.00 48 1012.2
20260830194551 79 236 0.0 0.0 0.00 0.00 0.00 51 1012.7
20260830193047 78 294 0.0 0.0 0.00 0.00 0.00 52 1012.8
20260830191615 77 221 0.0 0.0 0.00 0.00 0.00 55 1012.9
20260830190053 76 225 0.0 0.0 0.00 0.00 0.00 56 1013.2
20260830184538 75 337 0.0 0.0 0.00 0.00 0.00 58 1013.3
20260830183033 74 286 0.0 0.0 0.00 0.00 0.00 58 1013.4
20260830181530 73 309 0.0 0.0 0.00 0.00 0.00 60 1013.5
20260830180035 72 279 0.0 0.0 0.00 0.00 0.00 62 1013.6
20260830174528 71 227 0.0 0.0 0.00 0.00 0.00 63 1013.6
20260830173019 71 255 0.0 0.0 0.00 0.00 0.00 62 1013.6
20260830171515 70 277 0.0 0.0 0.00 0.00 0.00 64 1013.6
20260830170012 69 319 0.0 0.0 0.00 0.00 0.00 66 1013.5
20260830164510 68 305 0.0 0.0 0.00 0.00 0.00 68 1013.6
20260830163018 67 306 0.0 0.0 0.00 0.00 0.00 70 1013.5
20260830161501 65 268 0.0 0.0 0.00 0.00 0.00 71 1013.5
20260830160100 65 267 0.0 0.0 0.00 0.00 0.00 70 1013.6
20260830154602 64 271 0.0 0.0 0.00 0.00 0.00 71 1013.8
20260830153049 63 288 0.0 0.0 0.00 0.00 0.00 72 1013.6
20260830151545 61 315 0.0 0.0 0.00 0.00 0.00 76 1013.6
20260830150044 58 42 0.0 0.0 0.00 0.00 0.00 82 1013.5
20260830144543 56 344 0.0 0.0 0.00 0.00 0.00 84 1013.4
20260830143034 54 325 0.0 0.0 0.00 0.00 0.00 86 1013.4